DMSP 5D-2 F13 DEB, 40415

Orbit data source: Space-Track

DMSP 5D-2 F13 DEB, 40415 is space debris in SSO originally from a launch on Fri, 24 Mar 1995 UTC launched from the Air Force Western Test Range (AFWTR). Debris objects in space refer to the collection of defunct objects orbiting the Earth. Examples of debris include non-operational satellites, rocket bodies, and fragments generated from explosions, collisions, or faulty payload assembly.

Loading next visibility...
Identifier
40415, 1995-015AC
Orbit
SSO
Country
Flag of USUS
Related business
Manufacturer
Unknown
Mission
Spacecraft
Bus & Motor
Unknown
Mass
Unknown
Launch date (UTC)
1995-03-24 (30 years ago)
Launch vehicle
Unknown
Launch site
Air Force Western Test Range (AFWTR)
Object type
Payload
Rocket body
Debris
Shape & HBR
Unknown
Radar Cross Section
Small (<0.1 m²)

Expand to show TLE details & history
Last TLE update: 1 day ago

TLE from 1 day ago
0 DMSP 5D-2 F13 DEB
1 40415U 95015AC  25260.27973529  .00001864  00000-0  76912-3 0  9990
2 40415  98.7453 282.4715 0006759  62.2414 297.9451 14.27998437547071
Epoch: 2025-09-17T06:42Z
TLE epoch observation values (Epoch: 2025-09-17T06:42:49.129Z)
Latitude
-0.00005°
Longitude
-174.69115°
Altitude
799.082 km
Speed
7.455 km/s
True Right ascension
18h 49m 53s
True Declination
0° 00' 00"
Sunlit
Object was in daylight at epoch
Visualization orbit readout
Latitude
Unknown
Longitude
Unknown
Altitude
Unknown
Speed
Unknown
Apparent Right ascension
Unknown
Apparent Declination
Unknown
Sunlit
N/A
Visualization observer readout
Local Sidereal Time
02:58:38
Azimuth
Unknown
Elevation
Unknown
Doppler factor
Unknown
Orbital elements
Apogee altitude
800.427 km
Perigee altitude
790.73 km
Semi-major axis
7,173.716 km
Eccentricity
0.00068
Inclination
98.7453°
RAAN
282.4715°
Arg. of periapsis
62.2414°
True anomaly
297.87665°
Mean anomaly
297.9451°
Eccentric anomaly
297.91088°
Mean motion
3.57213 °/min
Orbital period
100.78 mins
BSTAR
0.00076912
Loading maneuver chart data...
Computing Atmospheric mass density...

Documentation

Showing up to 5 results
|